Flag for U.S.A. Weather past 2 weeks in Newport News, Virginia, U.S.A.

Now
87 °F

Clear.


Feels Like: 95 °F
Forecast: 76 / 85 °F
Wind: 10 mph from Southwest

Location: Newport News / Williamsburg International Airport

Current Time: Jul 23, 2014 at 10:29:50 PM

Latest Report: Jul 23, 2014 at 9:54 PM


Visibility: 10 mi

Pressure: 29.88 "Hg

Humidity: 65%

Dew point: 74 °F

Location of Newport NewsLocation

Historic Weather in Newport News — Graph

°F

Newport News temperature yesterday

Maximum temperature yesterday: 86 °F (at 12:54 PM)
Minimum temperature yesterday: 72 °F (at 12:54 AM)
Average temperature yesterday: 78 °F

Past Weeks' High & Low Weather Summary

 TemperatureHumidityPressure
High97 °F (Jul 14, 2:54 PM)90% (Jul 12, 3:02 AM)30.22 "Hg (Jul 12, 3:02 AM)
Low64 °F (Jul 18, 4:54 AM)37% (Jul 18, 12:54 PM)29.73 "Hg (Jul 15, 5:54 PM)
Average80 °F70%30.05 "Hg
* Reported Jul 8 9:54 PM — Jul 23 8:54 PM, Newport News, Weather by CustomWeather, © 2014

Note: Actual official high and low records may vary slightly from our data, if they occured in-between our weather recording intervals... More about our weather records

Advertising

Newport News weather history for previous 24 hours

 ConditionsComfort  
Time TempWeatherWind HumidityBarometerVisibility
8:54 PM
Jul 23
88 °FSunny.12 mph63%29.88 "Hg10 mi
7:54 PM90 °FSunny.12 mph57%29.87 "Hg10 mi
6:54 PM92 °FSunny.13 mph52%29.86 "Hg10 mi
5:54 PM94 °FSunny.14 mph49%29.87 "Hg10 mi
4:54 PM94 °FSunny.14 mph49%29.89 "Hg10 mi
3:54 PM94 °FSunny.13 mph49%29.91 "Hg10 mi
2:54 PM94 °FSunny.14 mph49%29.93 "Hg10 mi
1:54 PM92 °FSunny.9 mph54%29.96 "Hg10 mi
12:54 PM91 °FSunny.7 mph56%29.98 "Hg10 mi
11:54 AM86 °FSunny.8 mph63%30.00 "Hg10 mi
10:54 AM85 °FScattered clouds.7 mph65%30.03 "Hg10 mi
9:54 AM82 °FOvercast.8 mph72%30.04 "Hg10 mi
8:54 AM80 °FLow clouds.6 mph76%30.04 "Hg10 mi
12:54 AM76 °FPassing clouds.No wind88%30.08 "Hg10 mi
11:54 PM
Jul 22
77 °FClear.No wind85%30.09 "Hg10 mi
10:54 PM78 °FClear.3 mph84%30.09 "Hg10 mi
Weather by CustomWeather, © 2014

See weather overviewHow to use our weather pages